TAP757P EKCH-LPPT

Flight info

Callsign TAP757P
Flight time N/A
Altitude 34000
Route LANGO DCT CIV DCT MEDIL/N0450F350 DCT KOVIN DCT NIDUV DCT KIHVI UN872 ERIGA DCT FUJTI DCT BAKUP DCT BATAX DCT INBOM
Aircraft A321/M-SDE3FGHIRWY/LB1

Departure

Time N/A
Airport Copenhagen Kastrup Airport (EKCH)

Arrival

Time 2026-05-07 17:08
Airport Lisbon Humberto Delgado Airport (LPPT)
Time Latitude Longitude Altitude Speed Heading
2026-05-07 16:35 40.69175 -7.63295 34870 ft 409 kts 223°
2026-05-07 16:35 40.64613 -7.67781 34830 ft 409 kts 222°
2026-05-07 16:36 40.60055 -7.72247 34860 ft 408 kts 222°
2026-05-07 16:36 40.55505 -7.76699 34869 ft 407 kts 222°
2026-05-07 16:37 40.50960 -7.81144 34875 ft 407 kts 222°
2026-05-07 16:37 40.46419 -7.85570 34874 ft 406 kts 222°
2026-05-07 16:38 40.41878 -7.89987 34877 ft 406 kts 222°
2026-05-07 16:38 40.37368 -7.94371 34876 ft 406 kts 222°
2026-05-07 16:39 40.32818 -7.98775 34874 ft 406 kts 222°
2026-05-07 16:39 40.28271 -8.03170 34871 ft 406 kts 222°
2026-05-07 16:40 40.23712 -8.07585 34695 ft 415 kts 222°
2026-05-07 16:40 40.21363 -8.09866 34454 ft 425 kts 222°
2026-05-07 16:40 40.18981 -8.12172 33961 ft 427 kts 222°
2026-05-07 16:40 40.16589 -8.14475 33046 ft 427 kts 221°
2026-05-07 16:41 40.14203 -8.16760 32262 ft 424 kts 221°
2026-05-07 16:41 40.11826 -8.19039 31464 ft 423 kts 221°
2026-05-07 16:41 40.09474 -8.21294 31007 ft 416 kts 221°
2026-05-07 16:41 40.07155 -8.23513 30471 ft 411 kts 221°
2026-05-07 16:42 40.04864 -8.25707 29938 ft 407 kts 221°
2026-05-07 16:42 40.02577 -8.27841 29374 ft 403 kts 216°
2026-05-07 16:42 40.00094 -8.29514 28862 ft 401 kts 206°
2026-05-07 16:42 39.97422 -8.30562 28482 ft 405 kts 196°
2026-05-07 16:43 39.94596 -8.31080 28082 ft 413 kts 192°
2026-05-07 16:43 39.91740 -8.31525 27724 ft 413 kts 192°
2026-05-07 16:43 39.88890 -8.31961 27324 ft 412 kts 191°
2026-05-07 16:43 39.86049 -8.32390 26941 ft 410 kts 191°
2026-05-07 16:44 39.83222 -8.32815 26552 ft 408 kts 191°
2026-05-07 16:44 39.80410 -8.33238 26164 ft 406 kts 191°
2026-05-07 16:44 39.77610 -8.33659 25782 ft 404 kts 191°
2026-05-07 16:44 39.74836 -8.34080 25405 ft 397 kts 191°
2026-05-07 16:45 39.72166 -8.34574 25283 ft 377 kts 197°
2026-05-07 16:45 39.69764 -8.35670 25142 ft 357 kts 209°
2026-05-07 16:45 39.67699 -8.37353 24845 ft 345 kts 221°
2026-05-07 16:45 39.66024 -8.39516 24661 ft 339 kts 232°
2026-05-07 16:46 39.64596 -8.41949 24387 ft 339 kts 233°
2026-05-07 16:46 39.63169 -8.44375 24111 ft 338 kts 233°
2026-05-07 16:46 39.61736 -8.46792 23826 ft 338 kts 233°
2026-05-07 16:46 39.60305 -8.49200 23543 ft 337 kts 233°
2026-05-07 16:47 39.58827 -8.51553 23237 ft 336 kts 226°
2026-05-07 16:47 39.57044 -8.53501 22949 ft 336 kts 214°
2026-05-07 16:47 39.55047 -8.55081 22664 ft 336 kts 212°
2026-05-07 16:47 39.53049 -8.56647 22388 ft 335 kts 213°
2026-05-07 16:48 39.51060 -8.58212 22108 ft 334 kts 213°
2026-05-07 16:48 39.49081 -8.59770 21832 ft 332 kts 212°
2026-05-07 16:48 39.47135 -8.61300 21552 ft 328 kts 213°
2026-05-07 16:48 39.45195 -8.62824 21289 ft 325 kts 213°
2026-05-07 16:49 39.43271 -8.64334 21030 ft 324 kts 213°
2026-05-07 16:49 39.41336 -8.65851 20756 ft 323 kts 213°
2026-05-07 16:49 39.39520 -8.67547 20500 ft 321 kts 222°
2026-05-07 16:49 39.37826 -8.69431 20256 ft 321 kts 221°
2026-05-07 16:50 39.36134 -8.71307 20010 ft 320 kts 221°
2026-05-07 16:50 39.34447 -8.73177 19780 ft 319 kts 221°
2026-05-07 16:50 39.32770 -8.75039 19538 ft 317 kts 221°
2026-05-07 16:50 39.31098 -8.76897 19300 ft 316 kts 221°
2026-05-07 16:51 39.29437 -8.78745 19060 ft 315 kts 221°
2026-05-07 16:51 39.27775 -8.80591 18826 ft 315 kts 221°
2026-05-07 16:51 39.26114 -8.82430 18599 ft 315 kts 220°
2026-05-07 16:51 39.24454 -8.84263 18366 ft 313 kts 220°
2026-05-07 16:52 39.22808 -8.86082 18115 ft 311 kts 220°
2026-05-07 16:52 39.21167 -8.87897 17843 ft 310 kts 220°
2026-05-07 16:52 39.19528 -8.89710 17586 ft 310 kts 220°
2026-05-07 16:52 39.17895 -8.91514 17314 ft 308 kts 220°
2026-05-07 16:53 39.16141 -8.93070 17051 ft 305 kts 209°
2026-05-07 16:53 39.14285 -8.94407 16798 ft 305 kts 209°
2026-05-07 16:53 39.12427 -8.95747 16537 ft 306 kts 209°
2026-05-07 16:53 39.10580 -8.97079 16280 ft 304 kts 209°
2026-05-07 16:54 39.08743 -8.98403 16015 ft 301 kts 209°
2026-05-07 16:54 39.06916 -8.99718 15775 ft 301 kts 208°
2026-05-07 16:54 39.05095 -9.01026 15531 ft 300 kts 208°
2026-05-07 16:54 39.03272 -9.02336 15280 ft 299 kts 208°
2026-05-07 16:55 39.01486 -9.03620 15040 ft 298 kts 208°
2026-05-07 16:55 38.99691 -9.04910 14789 ft 295 kts 208°
2026-05-07 16:55 38.97890 -9.06201 14546 ft 296 kts 208°
2026-05-07 16:55 38.96090 -9.07491 14308 ft 297 kts 208°
2026-05-07 16:56 38.94294 -9.08775 14068 ft 294 kts 208°
2026-05-07 16:56 38.92509 -9.10050 13839 ft 292 kts 208°
2026-05-07 16:56 38.88982 -9.12571 13318 ft 290 kts 208°
2026-05-07 16:57 38.87219 -9.13829 13054 ft 289 kts 208°
2026-05-07 16:57 38.85468 -9.15077 12788 ft 287 kts 208°
2026-05-07 16:57 38.83729 -9.16316 12524 ft 285 kts 208°
2026-05-07 16:57 38.81996 -9.17552 12283 ft 284 kts 208°
2026-05-07 16:58 38.80276 -9.18779 12026 ft 283 kts 208°
2026-05-07 16:58 38.78554 -9.20006 11764 ft 282 kts 208°
2026-05-07 16:58 38.76850 -9.21219 11511 ft 280 kts 208°
2026-05-07 16:58 38.75157 -9.22422 11259 ft 278 kts 208°
2026-05-07 16:59 38.73458 -9.23627 10922 ft 281 kts 208°
2026-05-07 16:59 38.71746 -9.24842 10423 ft 282 kts 208°
2026-05-07 16:59 38.70028 -9.26062 9956 ft 282 kts 208°
2026-05-07 16:59 38.68309 -9.27283 9436 ft 283 kts 208°
2026-05-07 17:00 38.66586 -9.28502 8914 ft 283 kts 208°
2026-05-07 17:00 38.64865 -9.29721 8393 ft 283 kts 208°
2026-05-07 17:00 38.63142 -9.30939 7884 ft 283 kts 208°
2026-05-07 17:00 38.61420 -9.32156 7383 ft 283 kts 208°
2026-05-07 17:01 38.59701 -9.33375 6889 ft 282 kts 208°
2026-05-07 17:01 38.57987 -9.34590 6400 ft 281 kts 208°
2026-05-07 17:01 38.56315 -9.35772 5877 ft 266 kts 207°
2026-05-07 17:01 38.54613 -9.36445 5365 ft 252 kts 182°
2026-05-07 17:02 38.52946 -9.35973 4891 ft 246 kts 153°
2026-05-07 17:02 38.51717 -9.34497 4370 ft 246 kts 121°
2026-05-07 17:02 38.51269 -9.32423 3959 ft 242 kts 86°
2026-05-07 17:02 38.51736 -9.30370 4007 ft 245 kts 62°
2026-05-07 17:03 38.52521 -9.28435 4009 ft 246 kts 59°
2026-05-07 17:03 38.53345 -9.26531 4012 ft 244 kts 59°
2026-05-07 17:03 38.54176 -9.24636 4010 ft 245 kts 58°
2026-05-07 17:03 38.55041 -9.22749 4005 ft 245 kts 50°
2026-05-07 17:04 38.56361 -9.21460 4006 ft 238 kts 18°
2026-05-07 17:04 38.57962 -9.21303 4002 ft 232 kts 350°
2026-05-07 17:04 38.59563 -9.21583 3812 ft 232 kts 350°
2026-05-07 17:04 38.60620 -9.21760 3650 ft 231 kts 348°
2026-05-07 17:05 38.62219 -9.21823 3383 ft 232 kts
2026-05-07 17:05 38.63773 -9.21261 3090 ft 233 kts 16°
2026-05-07 17:05 38.65269 -9.20476 2782 ft 232 kts 20°
2026-05-07 17:05 38.66744 -9.19677 2474 ft 228 kts 18°
2026-05-07 17:06 38.68181 -9.18906 2159 ft 220 kts 18°
2026-05-07 17:06 38.69533 -9.18182 1879 ft 200 kts 17°
2026-05-07 17:06 38.70742 -9.17535 1626 ft 177 kts 17°
2026-05-07 17:06 38.71814 -9.16964 1398 ft 159 kts 19°
2026-05-07 17:07 38.72802 -9.16428 1157 ft 151 kts 19°
2026-05-07 17:07 38.73741 -9.15921 960 ft 142 kts 14°
2026-05-07 17:07 38.74665 -9.15455 829 ft 143 kts 15°
2026-05-07 17:07 38.75607 -9.14936 636 ft 148 kts 18°
2026-05-07 17:08 38.76551 -9.14437 402 ft 144 kts 16°
2026-05-07 17:08 38.77414 -9.13975 385 ft 125 kts 16°
2026-05-07 17:08 38.78128 -9.13607 369 ft 88 kts 25°
2026-05-07 17:08 38.78454 -9.13423 363 ft 29 kts 21°
2026-05-07 17:09 38.78537 -9.13315 360 ft 13 kts 87°
2026-05-07 17:09 38.78518 -9.13255 362 ft 5 kts 133°
2026-05-07 17:09 38.78517 -9.13254 362 ft 0 kts 135°
2026-05-07 17:11 38.78512 -9.13250 364 ft 6 kts 142°
2026-05-07 17:11 38.78435 -9.13222 360 ft 8 kts 174°
2026-05-07 17:12 38.78400 -9.13224 359 ft 4 kts 191°
2026-05-07 17:12 38.78364 -9.13240 361 ft 6 kts 204°
2026-05-07 17:12 38.78295 -9.13277 362 ft 16 kts 202°
2026-05-07 17:12 38.78187 -9.13334 362 ft 17 kts 202°
2026-05-07 17:13 38.78080 -9.13391 360 ft 16 kts 202°
2026-05-07 17:13 38.77982 -9.13404 356 ft 13 kts 171°
2026-05-07 17:13 38.77878 -9.13377 349 ft 17 kts 168°
2026-05-07 17:13 38.77757 -9.13345 343 ft 20 kts 167°
2026-05-07 17:14 38.77615 -9.13321 336 ft 19 kts 180°
2026-05-07 17:14 38.77593 -9.13320 335 ft 0 kts 174°
2026-05-07 17:15 38.77542 -9.13310 338 ft 17 kts 171°
2026-05-07 17:15 38.77420 -9.13277 338 ft 14 kts 167°
2026-05-07 17:15 38.77338 -9.13281 335 ft 9 kts 218°
2026-05-07 17:15 38.77317 -9.13336 337 ft 5 kts 232°
2026-05-07 17:16 38.77297 -9.13356 353 ft 2 kts 208°
2026-05-07 17:16 38.77235 -9.13353 343 ft 21 kts 167°
2026-05-07 17:16 38.77116 -9.13324 349 ft 13 kts 167°
2026-05-07 17:16 38.77033 -9.13293 337 ft 12 kts 146°
2026-05-07 17:17 38.77022 -9.13266 338 ft 3 kts 98°
2026-05-07 17:17 38.77024 -9.13231 340 ft 5 kts 79°
2026-05-07 17:17 38.77043 -9.13192 337 ft 6 kts 27°
2026-05-07 17:17 38.77086 -9.13195 337 ft 6 kts 351°
2026-05-07 17:18 38.77101 -9.13185 337 ft 3 kts 70°
2026-05-07 17:18 38.77109 -9.13149 335 ft 4 kts 76°
2026-05-07 17:18 38.77112 -9.13130 336 ft 0 kts 77°
2026-05-07 17:18 38.77112 -9.13129 336 ft 0 kts 77°
2026-05-07 17:19 38.77112 -9.13128 336 ft 0 kts 77°
2026-05-07 17:19 38.77113 -9.13123 337 ft 0 kts 77°
2026-05-07 17:19 38.77114 -9.13121 337 ft 0 kts 77°
2026-05-07 17:19 38.77114 -9.13120 337 ft 0 kts 77°
2026-05-07 17:20 38.77114 -9.13117 337 ft 0 kts 78°